UTA541 USTR-USMU

Flight info

Callsign UTA541
Flight time N/A
Altitude 35000
Route N0460F350 LAKED L165 LUGIK A925 HMN R124 LARTU W77 REMKI
Aircraft B738/M-VGDW/C

Departure

Time 2026-04-27 20:19
Airport Roshchino International Airport (USTR)

Arrival

Time N/A
Airport Novy Urengoy Airport (USMU)
Time Latitude Longitude Altitude Speed Heading
2026-04-27 19:36 57.18051 65.34846 339 ft 0 kts 45°
2026-04-27 19:57 57.18050 65.34844 339 ft 1 kts 45°
2026-04-27 19:58 57.18038 65.34822 335 ft 3 kts 45°
2026-04-27 19:58 57.18024 65.34795 338 ft 3 kts 45°
2026-04-27 19:58 57.18012 65.34771 336 ft 3 kts 34°
2026-04-27 19:58 57.17998 65.34761 338 ft 3 kts 341°
2026-04-27 19:59 57.17987 65.34770 334 ft 3 kts 319°
2026-04-27 19:59 57.17973 65.34795 334 ft 2 kts 314°
2026-04-27 19:59 57.17970 65.34801 335 ft 1 kts 315°
2026-04-27 20:11 57.17970 65.34800 339 ft 1 kts 315°
2026-04-27 20:11 57.17996 65.34752 337 ft 7 kts 314°
2026-04-27 20:12 57.18033 65.34683 338 ft 7 kts 314°
2026-04-27 20:12 57.18068 65.34618 339 ft 7 kts 314°
2026-04-27 20:12 57.18103 65.34552 338 ft 7 kts 314°
2026-04-27 20:12 57.18139 65.34484 339 ft 7 kts 314°
2026-04-27 20:13 57.18174 65.34419 339 ft 7 kts 314°
2026-04-27 20:13 57.18208 65.34355 337 ft 7 kts 314°
2026-04-27 20:13 57.18241 65.34293 338 ft 7 kts 314°
2026-04-27 20:13 57.18274 65.34231 339 ft 7 kts 314°
2026-04-27 20:14 57.18306 65.34171 338 ft 7 kts 314°
2026-04-27 20:14 57.18338 65.34111 338 ft 6 kts 314°
2026-04-27 20:14 57.18369 65.34053 339 ft 6 kts 314°
2026-04-27 20:14 57.18399 65.33997 336 ft 6 kts 316°
2026-04-27 20:15 57.18450 65.33910 338 ft 12 kts 317°
2026-04-27 20:15 57.18511 65.33802 337 ft 12 kts 314°
2026-04-27 20:15 57.18564 65.33701 335 ft 12 kts 314°
2026-04-27 20:15 57.18617 65.33584 339 ft 12 kts 289°
2026-04-27 20:16 57.18618 65.33428 339 ft 13 kts 270°
2026-04-27 20:16 57.18579 65.33286 337 ft 13 kts 224°
2026-04-27 20:16 57.18503 65.33141 331 ft 19 kts 229°
2026-04-27 20:16 57.18474 65.32907 331 ft 19 kts 268°
2026-04-27 20:17 57.18469 65.32655 328 ft 21 kts 268°
2026-04-27 20:17 57.18465 65.32382 327 ft 21 kts 269°
2026-04-27 20:17 57.18471 65.32191 331 ft 12 kts 299°
2026-04-27 20:17 57.18508 65.32118 331 ft 12 kts 317°
2026-04-27 20:18 57.18587 65.31985 332 ft 14 kts 317°
2026-04-27 20:18 57.18665 65.31855 334 ft 15 kts 317°
2026-04-27 20:18 57.18710 65.31748 340 ft 9 kts 270°
2026-04-27 20:18 57.18636 65.31580 353 ft 39 kts 227°
2026-04-27 20:19 57.18287 65.30876 365 ft 107 kts 227°
2026-04-27 20:19 57.17655 65.29604 392 ft 161 kts 227°
2026-04-27 20:19 57.16870 65.27999 1000 ft 168 kts 226°
2026-04-27 20:19 57.16281 65.26229 1965 ft 169 kts 252°
2026-04-27 20:20 57.16501 65.24000 2679 ft 192 kts 291°
2026-04-27 20:20 57.17415 65.22142 3479 ft 204 kts 321°
2026-04-27 20:20 57.18837 65.21415 4057 ft 227 kts
2026-04-27 20:20 57.20412 65.22146 4505 ft 238 kts 18°
2026-04-27 20:21 57.22030 65.23171 4798 ft 258 kts 18°
2026-04-27 20:21 57.23777 65.24290 5235 ft 272 kts 18°
2026-04-27 20:21 57.25643 65.25483 5637 ft 290 kts 18°
2026-04-27 20:21 57.27572 65.26701 6410 ft 295 kts 18°
2026-04-27 20:22 57.29497 65.27908 7194 ft 296 kts 18°
2026-04-27 20:22 57.31456 65.29126 7984 ft 298 kts 17°
2026-04-27 20:22 57.33432 65.30350 8762 ft 301 kts 17°
2026-04-27 20:22 57.35425 65.31584 9536 ft 303 kts 17°
2026-04-27 20:23 57.37438 65.32826 10302 ft 306 kts 17°
2026-04-27 20:23 57.39507 65.34102 10631 ft 325 kts 17°
2026-04-27 20:23 57.41727 65.35471 10819 ft 346 kts 18°
2026-04-27 20:23 57.44079 65.36924 11041 ft 365 kts 18°
2026-04-27 20:24 57.46521 65.38436 11576 ft 372 kts 18°
2026-04-27 20:24 57.48990 65.39974 12277 ft 375 kts 18°
2026-04-27 20:24 57.51480 65.41519 12981 ft 379 kts 17°
2026-04-27 20:24 57.53997 65.43082 13668 ft 383 kts 17°
2026-04-27 20:25 57.56543 65.44667 14334 ft 387 kts 17°
2026-04-27 20:25 57.58237 65.45722 14769 ft 389 kts 17°
2026-04-27 20:25 57.61407 65.47693 15595 ft 393 kts 16°
2026-04-27 20:25 57.64055 65.49000 16256 ft 395 kts 10°
2026-04-27 20:26 57.66763 65.49993 16918 ft 398 kts
2026-04-27 20:26 57.69508 65.50906 17533 ft 403 kts
2026-04-27 20:26 57.72276 65.51833 18166 ft 407 kts
2026-04-27 20:26 57.75080 65.52807 18748 ft 411 kts
2026-04-27 20:27 57.77892 65.53819 19354 ft 412 kts
2026-04-27 20:27 57.80705 65.54855 19958 ft 415 kts
2026-04-27 20:27 57.83560 65.55920 20487 ft 419 kts
2026-04-27 20:27 57.86431 65.56997 21043 ft 421 kts
2026-04-27 20:28 57.89310 65.58079 21588 ft 424 kts
2026-04-27 20:28 57.92208 65.59168 22165 ft 425 kts
2026-04-27 20:28 57.95121 65.60263 22692 ft 428 kts
2026-04-27 20:28 57.97054 65.60990 23054 ft 429 kts
2026-04-27 20:29 58.01000 65.62211 23731 ft 431 kts
2026-04-27 20:29 58.03991 65.62796 24142 ft 433 kts
2026-04-27 20:29 58.05980 65.63118 24409 ft 434 kts